Terminal Aerodrome Forecast
Issued by NWS Twin Cities, MN

Home | Current Version | Previous Version | Graphics & Text | Print | Product List | Glossary On
Versions: 1 2 3 4 5 6 7 8 9 10 11 12 13 14 15 16 17 18 19 20 21 22 23 24 25 26 27 28 29 30 31 32
000
FTUS43 KMPX 251739
TAFMSP
TAF
KMSP 251739Z 2518/2624 09010KT 6SM -SHRA BKN070
     FM252000 12012KT P6SM VCSH BKN040 OVC100
     FM252200 14009KT P6SM SCT050 BKN250
     FM260900 19004KT 5SM BR SCT250
     FM261300 23008KT P6SM SCT250=

USA.gov is the U.S. government's official web portal to all federal, state and local government web resources and services.